Date,TemperatureHighF,TemperatureAvgF,TemperatureLowF,DewpointHighF,DewpointAvgF,DewpointLowF,HumidityHigh,HumidityAvg,HumidityLow,PressureMaxIn,PressureMinIn,WindSpeedMaxMPH,WindSpeedAvgMPH,GustSpeedMaxMPH,PrecipitationSumIn
2013-4-1,70,53,42,52,44,33,100,74,37,29.94,29.80,3,0,7,1.63
2013-4-2,63,48,34,35,29,22,80,53,24,30.08,29.93,2,0,6,1.63
2013-4-3,62,48,37,29,22,18,50,37,24,30.17,30.05,2,0,5,0.00
2013-4-4,46,42,34,35,29,24,98,64,42,30.18,30.14,1,0,3,1.66
2013-4-5,50,47,44,38,36,35,72,66,62,30.01,29.94,1,0,3,0.00
2013-4-6,67,50,34,39,34,31,93,58,28,30.17,30.00,2,0,8,0.00
2013-4-7,67,55,42,45,40,33,76,57,42,30.16,30.04,5,1,14,0.00
2013-4-8,71,59,45,53,47,42,90,67,47,30.12,30.03,5,1,14,0.00
2013-4-9,80,65,50,57,52,47,94,66,42,30.18,30.08,3,0,8,0.00
2013-4-10,84,68,53,58,54,51,92,64,39,30.11,29.94,3,0,11,0.00
2013-4-11,75,65,57,63,56,53,100,75,48,29.97,29.68,4,1,14,0.40
2013-4-12,78,62,49,63,53,40,100,77,39,29.85,29.62,4,1,12,1.69
2013-4-13,75,57,45,44,38,32,76,52,22,30.02,29.82,2,0,7,0.54
2013-4-14,68,54,40,51,41,34,95,63,35,30.07,29.95,2,0,8,0.00
2013-4-15,64,55,50,58,53,50,100,96,80,30.17,29.93,0,0,3,0.21
2013-4-16,78,63,55,61,57,54,100,82,54,30.26,30.16,2,0,6,0.01
2013-4-17,78,62,56,64,58,55,100,91,59,30.24,30.12,2,0,7,0.11
2013-4-18,73,62,55,62,58,55,100,86,57,30.13,29.96,3,0,11,0.28
2013-4-19,63,58,42,63,58,40,100,98,92,29.96,29.73,5,2,19,0.62
2013-4-20,65,48,34,40,34,27,95,61,35,30.22,29.89,4,1,11,0.13
2013-4-21,64,48,33,38,33,28,93,61,34,30.36,30.22,2,0,6,0.13
2013-4-22,65,51,42,41,38,33,85,63,37,30.34,30.15,2,0,7,0.00
2013-4-23,72,53,34,46,38,31,93,61,33,30.22,30.04,2,0,6,0.00
2013-4-24,68,58,49,58,51,45,98,78,60,30.11,29.98,6,1,13,0.01
2013-4-25,75,55,39,52,36,26,94,57,23,30.27,30.05,2,1,6,0.03
2013-4-26,68,54,38,42,34,29,77,50,29,30.37,30.25,2,0,5,0.01
2013-4-27,55,51,48,51,47,39,100,90,54,30.34,30.20,0,0,2,0.79
2013-4-28,50,48,45,50,47,-100,100,100,100,30.21,29.97,1,0,2,2.30
2013-4-29,70,57,49,61,54,49,100,91,71,30.04,29.90,1,0,3,2.32
2013-4-30,74,60,47,59,54,47,100,83,52,30.14,29.95,1,0,3,2.27